This is the latest recevied weather packets stored in our database for station/object KE1THD. If no packets are shown the sender has not sent any weather packets the latest 10 day(s).
| Time | Temp. | Humidity | Pressure | Rain* | Wind** | Luminosity | Snow |
|---|---|---|---|---|---|---|---|
| 1778023270 | 13.89° C | 41% | 1008.6 hPa | 0 mm | - | 113 W/m² | - |
| 1778022966 | 13.89° C | 43% | 1008.9 hPa | 0 mm | - | 113 W/m² | - |
| 1778022665 | 13.89° C | 38% | 1008.9 hPa | 0 mm | - | 97 W/m² | - |
| 1778022363 | 13.89° C | 42% | 1008.9 hPa | 0 mm | - | 129 W/m² | - |
| 1778022058 | 13.89° C | 40% | 1009.2 hPa | 0 mm | - | 147 W/m² | - |
| 1778021755 | 13.89° C | 39% | 1008.9 hPa | 0 mm | - | 150 W/m² | - |
| 1778021451 | 13.89° C | 39% | 1009.3 hPa | 0 mm | - | 141 W/m² | - |
| 1778021148 | 13.89° C | 39% | 1009.2 hPa | 0 mm | - | 177 W/m² | - |
| 1778020846 | 13.89° C | 37% | 1009.3 hPa | 0 mm | - | 141 W/m² | - |
| 1778020543 | 13.89° C | 38% | 1009.6 hPa | 0 mm | - | 246 W/m² | - |
| 1778020239 | 13.89° C | 39% | 1009.6 hPa | 0 mm | - | 189 W/m² | - |
| 1778019935 | 13.89° C | 37% | 1009.4 hPa | 0 mm | - | 181 W/m² | - |
| 1778019631 | 13.89° C | 38% | 1009.2 hPa | 0 mm | - | 167 W/m² | - |
| 1778019329 | 13.89° C | 39% | 1009.3 hPa | 0 mm | - | 176 W/m² | - |
| 1778019025 | 13.89° C | 39% | 1009.3 hPa | 0 mm | - | 180 W/m² | - |
| 1778018722 | 13.89° C | 38% | 1009.4 hPa | 0 mm | - | 231 W/m² | - |
| 1778018420 | 13.89° C | 38% | 1009.6 hPa | 0 mm | - | 239 W/m² | - |
| 1778018118 | 13.89° C | 39% | 1009.4 hPa | 0 mm | - | 210 W/m² | - |
| 1778017816 | 13.33° C | 38% | 1009.7 hPa | 0 mm | - | 205 W/m² | - |
| 1778017514 | 13.33° C | 38% | 1009.7 hPa | 0 mm | - | 214 W/m² | - |
| 1778017210 | 13.33° C | 37% | 1009.8 hPa | 0 mm | - | 240 W/m² | - |
| 1778016908 | 13.33° C | 38% | 1009.7 hPa | 0 mm | - | 240 W/m² | - |
| 1778016604 | 13.33° C | 39% | 1010.2 hPa | 0 mm | - | 229 W/m² | - |
| 1778016301 | 13.33° C | 38% | 1009.9 hPa | 0 mm | - | 201 W/m² | - |
| 1778015997 | 13.33° C | 38% | 1009.8 hPa | 0 mm | - | 188 W/m² | - |
* Rain latest hour (hover to see other rain measurements)
** Current wind speed in m/s (hover to see current wind gust speed)